Regional Weather Roundup
Issued by NWS

Home | Current Version | Previous Version | Text Only | Print | Product List | Glossary On
Versions: 1 2 3 4 5 6 7 8 9 10 11 12 13 14 15 16 17 18 19 20 21 22 23 24 25 26 27 28 29 30 31 32 33 34 35 36 37 38 39 40 41 42 43 44 45 46 47 48 49 50
892
ASUS43 KOAX 302302
RWRNE

WEATHER ROUNDUP FOR NEBRASKA
NATIONAL WEATHER SERVICE OMAHA NE
600 PM CDT SAT JUL 30 2016

NOTES: SATELLITE DATA IS BEING USED TO AUGMENT CLOUD COVER ABOVE
       12000 FEET.
       "FAIR" INDICATES FEW OR NO CLOUDS BELOW 12,000 FEET WITH NO
       SIGNIFICANT WEATHER AND/OR OBSTRUCTIONS TO VISIBILITY.

  * THESE STATIONS DO NOT REPORT WEATHER SUCH AS RAIN...SNOW OR FOG.

NEZ001>004-019>022-054>056-310000-
NEBRASKA PANHANDLE

CITY           SKY/WX    TMP DP  RH WIND       PRES   REMARKS
SCOTTSBLUFF    SUNNY     89  60  37 E18G28    29.89F
ALLIANCE       SUNNY     86  60  41 S15       29.93F
CHADRON        SUNNY     92  55  28 S16       29.84F HX  90
SIDNEY         SUNNY     86  57  37 S17       29.98F
$$

NEZ057>060-069>072-079>082-310000-
SOUTHWEST NEBRASKA

CITY           SKY/WX    TMP DP  RH WIND       PRES   REMARKS
NORTH PLATTE   MOSUNNY   85  68  56 SE8       29.92F
IMPERIAL       SUNNY     89  57  33 S14       29.91F
LEXINGTON      SUNNY     85  67  55 SE9       29.93S
MCCOOK         SUNNY     91  62  37 SE14      29.90S HX  91
OGALLALA       SUNNY     89  58  34 SE12      29.92F
$$

NEZ005>010-023>029-035>040-094-310000-
NORTH CENTRAL NEBRASKA

CITY           SKY/WX    TMP DP  RH WIND       PRES   REMARKS
VALENTINE      MOSUNNY   86  59  39 S12       29.90S
AINSWORTH      MOSUNNY   84  65  52 S13       29.91F
BROKEN BOW     MOSUNNY   81  69  67 S8        29.93F
O`NEILL        MOSUNNY   82  65  56 SE14G20   29.93F
ORD            MOSUNNY   82  68  62 SE12G17   29.92F
THEDFORD       SUNNY     85  65  50 S13G21    29.93F
$$

NEZ041-046>049-061>064-073>077-083>087-310000-
SOUTH CENTRAL NEBRASKA

CITY           SKY/WX    TMP DP  RH WIND       PRES   REMARKS
GRAND ISLAND   MOSUNNY   81  69  67 S10       29.94F
AURORA         PTSUNNY   81  71  70 SE12      29.95F
HASTINGS       MOSUNNY   83  66  56 SE9G18    29.94F
HEBRON         SUNNY     83  65  55 SE10      29.94F
HOLDREGE       SUNNY     85  64  49 SE12      29.93S
KEARNEY *      MOSUNNY   84  70  61 SE13      29.94F
YORK           SUNNY     79  70  73 SE10      29.95F
$$

NEZ011>018-030>034-042>045-310000-
NORTHEAST NEBRASKA

CITY           SKY/WX    TMP DP  RH WIND       PRES   REMARKS
NORFOLK        MOSUNNY   79  63  57 SE12      29.95F
ALBION         MOSUNNY   77  66  68 SE10      29.95F
BLAIR          PTSUNNY   79  66  64 SE7       29.96F
FREMONT        SUNNY     80  64  57 SE8       29.96F
TEKAMAH        SUNNY     81  61  50 SE8       29.95F
WAYNE          MOSUNNY   79  65  62 SE10      29.96F
$$

NEZ050>053-065>068-078-088>093-310000-
SOUTHEAST NEBRASKA

CITY           SKY/WX    TMP DP  RH WIND       PRES   REMARKS
LINCOLN        SUNNY     80  66  62 E7        29.97S
OMAHA EPPLEY   MOSUNNY   82  63  52 S9        29.95F
BEATRICE       SUNNY     81  67  61 E8        29.95F
FALLS CITY     SUNNY     80  69  69 SE7       29.95F
NEBRASKA CITY  CLOUDY    78  67  69 SE6       29.97F
PLATTSMOUTH    PTSUNNY   77  66  67 S6        29.98S
$$

NEZ044-045-051>053-067-310000-
OMAHA AREA

CITY           SKY/WX    TMP DP  RH WIND       PRES   REMARKS
OMAHA EPPLEY   MOSUNNY   82  63  52 S9        29.95F
BLAIR          PTSUNNY   79  66  64 SE7       29.96F
FREMONT        SUNNY     80  64  57 SE8       29.96F
MILLARD        MOSUNNY   81  65  59 S6        29.96S
OFFUTT AFB     MOSUNNY   81  65  58 SE7       29.96F
PLATTSMOUTH    PTSUNNY   77  66  67 S6        29.98S
WAHOO          FAIR      79  67  66 SE9       29.96F
$$




USA.gov is the U.S. government's official web portal to all federal, state and local government web resources and services.